This is the latest recevied weather packets stored in our database for station/object KORK. If no packets are shown the sender has not sent any weather packets the latest 10 day(s).
| Time | Temp. | Humidity | Pressure | Rain* | Wind** | Luminosity | Snow |
|---|---|---|---|---|---|---|---|
| 1777692824 | 12.78° C | 71% | 1017.3 hPa | - | - | - | - |
| 1777692221 | 13.89° C | 67% | 1017.3 hPa | - | - | - | - |
| 1777691625 | 13.89° C | 67% | 1017.3 hPa | - | - | - | - |
| 1777691020 | 13.89° C | 67% | 1017.3 hPa | - | - | - | - |
| 1777690423 | 13.89° C | 58% | 1017.3 hPa | - | - | - | - |
| 1777689818 | 13.89° C | 58% | 1017.3 hPa | - | - | - | - |
| 1777689221 | 13.89° C | 62% | 1017.3 hPa | - | - | - | - |
| 1777688620 | 13.89° C | 62% | 1017.3 hPa | - | - | - | - |
| 1777688023 | 13.89° C | 62% | 1017.3 hPa | - | - | - | - |
| 1777687420 | 13.89° C | 62% | 1017.3 hPa | - | - | - | - |
| 1777686823 | 15° C | 58% | 1017.3 hPa | - | - | - | - |
| 1777686221 | 15° C | 58% | 1017.3 hPa | - | - | - | - |
| 1777685622 | 15° C | 54% | 1016.9 hPa | - | - | - | - |
| 1777685021 | 15° C | 54% | 1016.9 hPa | - | - | - | - |
| 1777684417 | 15.56° C | 51% | 1016.6 hPa | - | - | - | - |
| 1777683819 | 15.56° C | 51% | 1016.6 hPa | - | - | - | - |
| 1777683219 | 15.56° C | 55% | 1016.6 hPa | - | - | - | - |
| 1777682617 | 15.56° C | 55% | 1015.9 hPa | - | - | - | - |
| 1777682019 | 15.56° C | 55% | 1015.9 hPa | - | - | - | - |
| 1777681421 | 15.56° C | 55% | 1015.9 hPa | - | - | - | - |
| 1777680818 | 16.67° C | 51% | 1015.2 hPa | - | - | - | - |
| 1777680223 | 16.67° C | 51% | 1015.2 hPa | - | - | - | - |
| 1777679620 | 16.67° C | 55% | 1015.2 hPa | - | - | - | - |
| 1777679021 | 16.67° C | 55% | 1015.2 hPa | - | - | - | - |
| 1777678419 | 17.78° C | 48% | 1014.6 hPa | - | - | - | - |
* Rain since midnight (hover to see other rain measurements)
** Current wind speed in m/s (hover to see current wind gust speed)